EW1620 Weather Reports


Display with metric or nautical units.
time (UTC)temp
F
wind
direction
speed
MPH
gust
MPH
rain 1hr
in
rain 24hr
in
rain mn
in
humidity
%
barometer
mb
20260508170552 49 252 0.0 0.0 0.00 0.01 0.00 86 1026.1
20260508170057 49 252 0.0 0.0 0.00 0.01 0.00 86 1026.0
20260508165552 49 252 0.0 0.0 0.00 0.01 0.00 86 1026.0
20260508165051 49 252 0.0 0.0 0.00 0.01 0.00 86 1025.9
20260508164550 50 252 0.0 1.0 0.00 0.01 0.00 86 1026.0
20260508164050 50 252 0.0 1.0 0.00 0.01 0.00 86 1025.9
20260508163550 50 252 0.0 1.0 0.00 0.01 0.00 86 1025.9
20260508163048 50 252 0.0 1.0 0.00 0.01 0.00 86 1025.9
20260508162548 50 252 0.0 1.0 0.00 0.01 0.00 86 1026.0
20260508162050 50 252 0.0 2.0 0.00 0.01 0.00 86 1025.9
20260508161547 50 252 0.0 2.0 0.00 0.01 0.00 86 1025.9
20260508161046 51 252 0.0 1.0 0.00 0.01 0.00 86 1025.9
20260508160545 51 252 0.0 1.0 0.00 0.01 0.00 86 1025.9
20260508160044 51 252 0.0 1.0 0.00 0.01 0.00 86 1025.9
20260508155543 51 252 0.0 2.0 0.00 0.01 0.00 86 1025.9
20260508155042 51 252 0.0 2.0 0.00 0.01 0.00 86 1025.8
20260508154604 51 252 0.0 2.0 0.00 0.01 0.00 86 1025.8
20260508154041 51 252 0.0 1.0 0.00 0.01 0.00 85 1025.8
20260508153541 52 252 0.0 0.0 0.00 0.01 0.00 85 1025.8
20260508153043 52 252 0.0 0.0 0.00 0.01 0.00 85 1025.8
20260508152540 52 252 0.0 1.0 0.00 0.01 0.00 85 1025.9
20260508152039 52 252 0.0 1.0 0.00 0.01 0.00 85 1025.9
20260508151540 52 252 0.0 1.0 0.00 0.01 0.00 85 1026.0
20260508151038 52 252 0.0 1.0 0.00 0.01 0.00 85 1025.9
20260508150538 52 252 0.0 1.0 0.00 0.01 0.00 85 1026.0
20260508150039 52 252 0.0 1.0 0.00 0.01 0.00 85 1025.9
20260508145537 53 252 0.0 3.0 0.00 0.01 0.00 85 1025.9
20260508145038 53 252 0.0 4.0 0.00 0.01 0.00 85 1025.9
20260508144532 53 254 0.0 4.0 0.00 0.01 0.00 85 1025.8
20260508144032 53 273 0.0 3.0 0.00 0.01 0.00 85 1025.9
20260508143534 53 273 0.0 3.0 0.00 0.01 0.00 85 1025.9
20260508143031 53 256 0.0 6.0 0.00 0.01 0.00 85 1025.9
20260508142530 53 230 1.0 6.0 0.00 0.01 0.00 85 1025.9
20260508142029 53 273 0.0 6.0 0.00 0.01 0.00 85 1025.8
20260508141533 53 244 0.0 6.0 0.00 0.01 0.00 85 1025.8
20260508141027 53 272 2.0 5.0 0.00 0.01 0.00 85 1025.9
20260508140528 53 255 1.0 4.0 0.00 0.01 0.00 85 1025.8
20260508140027 53 222 1.0 4.0 0.00 0.01 0.01 85 1025.9
20260508135525 53 271 2.0 5.0 0.00 0.01 0.01 85 1025.9
20260508135025 53 282 2.0 5.0 0.00 0.01 0.01 85 1025.9
20260508134529 53 271 0.0 6.0 0.00 0.01 0.01 84 1025.9
20260508134027 53 257 1.0 6.0 0.00 0.01 0.01 84 1025.9
20260508133529 53 265 1.0 6.0 0.00 0.01 0.01 84 1026.0
20260508133044 53 261 0.0 4.0 0.00 0.01 0.01 84 1026.0
20260508132527 53 275 0.0 5.0 0.00 0.01 0.01 84 1026.0
20260508132026 53 256 2.0 6.0 0.00 0.01 0.01 84 1026.0
20260508131527 53 254 2.0 7.0 0.00 0.01 0.01 85 1026.1
20260508131027 53 280 1.0 4.0 0.00 0.01 0.01 85 1026.1
20260508130526 53 269 1.0 4.0 0.00 0.01 0.01 85 1026.2
20260508130029 53 271 1.0 4.0 0.00 0.01 0.01 85 1026.2
20260508125527 53 248 1.0 4.0 0.00 0.01 0.01 84 1026.2
20260508125027 53 242 0.0 3.0 0.00 0.01 0.01 84 1026.3
20260508124526 53 277 0.0 4.0 0.00 0.01 0.01 84 1026.2
20260508124023 53 279 1.0 4.0 0.00 0.01 0.01 84 1026.2
20260508123524 53 240 0.0 2.0 0.00 0.01 0.01 84 1026.3
20260508123042 53 240 0.0 4.0 0.00 0.01 0.01 84 1026.3
20260508122523 53 240 1.0 4.0 0.00 0.01 0.01 84 1026.2
20260508122023 53 250 0.0 3.0 0.00 0.01 0.01 84 1026.2
20260508121528 53 215 0.0 3.0 0.00 0.01 0.01 84 1026.2
20260508121023 53 271 0.0 3.0 0.00 0.01 0.01 84 1026.2
20260508120522 53 259 0.0 2.0 0.00 0.01 0.01 84 1026.2
20260508120022 53 257 0.0 4.0 0.00 0.01 0.01 84 1026.3
20260508115526 53 202 0.0 6.0 0.00 0.01 0.01 83 1026.1
20260508115021 53 242 1.0 8.0 0.00 0.01 0.01 83 1026.1
20260508114525 53 259 2.0 8.0 0.00 0.01 0.01 83 1026.1
20260508114025 53 236 1.0 3.0 0.00 0.01 0.01 83 1026.0
20260508113525 53 245 0.0 4.0 0.00 0.01 0.01 83 1026.1
20260508113025 53 286 1.0 4.0 0.00 0.01 0.01 83 1026.0
20260508112524 53 244 1.0 3.0 0.00 0.01 0.01 82 1026.1
20260508112024 53 258 1.0 4.0 0.00 0.01 0.01 82 1026.0
20260508111533 53 259 1.0 4.0 0.00 0.01 0.01 82 1026.0
20260508111025 53 243 1.0 6.0 0.00 0.01 0.01 82 1026.0
20260508110525 53 257 1.0 6.0 0.00 0.01 0.01 82 1026.1
20260508110026 54 261 0.0 4.0 0.00 0.01 0.01 82 1026.1
20260508105524 54 272 2.0 5.0 0.00 0.01 0.01 82 1026.1
20260508105023 54 204 2.0 7.0 0.00 0.01 0.01 82 1026.1
20260508104521 54 228 2.0 7.0 0.00 0.01 0.01 81 1026.0
20260508104020 54 254 1.0 4.0 0.00 0.01 0.01 81 1026.0
20260508103519 54 241 1.0 8.0 0.00 0.01 0.01 81 1025.9
20260508103019 54 238 3.0 8.0 0.00 0.01 0.01 81 1025.8
20260508102518 54 215 2.0 6.0 0.00 0.01 0.01 81 1025.7
20260508102018 54 266 2.0 7.0 0.00 0.01 0.01 81 1025.7
20260508101518 55 258 1.0 5.0 0.00 0.01 0.01 81 1025.7
20260508101018 55 273 2.0 5.0 0.00 0.01 0.01 80 1025.7
20260508100519 55 259 1.0 7.0 0.00 0.01 0.01 80 1025.6
20260508100017 55 281 1.0 7.0 0.00 0.01 0.01 80 1025.6
20260508095517 55 240 2.0 7.0 0.00 0.01 0.01 80 1025.5
20260508095016 55 237 1.0 4.0 0.00 0.01 0.01 80 1025.5
20260508094514 55 255 1.0 6.0 0.00 0.01 0.01 80 1025.5
20260508094014 55 265 1.0 8.0 0.00 0.01 0.01 80 1025.6
20260508093514 56 220 1.0 8.0 0.00 0.01 0.01 80 1025.5
20260508093017 56 233 2.0 9.0 0.00 0.01 0.01 79 1025.4
20260508092513 56 277 2.0 9.0 0.00 0.01 0.01 80 1025.5
20260508092012 56 193 1.0 7.0 0.00 0.01 0.01 79 1025.5
20260508091513 56 195 3.0 10.0 0.00 0.01 0.01 79 1025.4
20260508091017 56 258 4.0 10.0 0.00 0.01 0.01 79 1025.2
20260508090512 56 225 1.0 8.0 0.00 0.01 0.01 78 1025.2
20260508090023 56 193 4.0 8.0 0.00 0.01 0.01 78 1025.3
20260508085510 56 246 2.0 6.0 0.00 0.01 0.01 77 1025.1
20260508085010 56 226 2.0 11.0 0.00 0.01 0.01 77 1024.9
20260508084509 56 215 4.0 11.0 0.00 0.01 0.01 77 1024.9
20260508084011 56 194 2.0 9.0 0.00 0.01 0.01 76 1024.8
20260508083509 56 274 1.0 7.0 0.00 0.01 0.01 76 1024.8
20260508083009 56 229 1.0 7.0 0.00 0.01 0.01 76 1024.8
20260508082508 57 253 0.0 3.0 0.00 0.01 0.01 75 1024.8
20260508082008 57 198 1.0 3.0 0.00 0.01 0.01 75 1024.8
20260508081508 57 213 0.0 4.0 0.00 0.01 0.01 74 1024.7
20260508081006 57 205 0.0 4.0 0.00 0.01 0.01 74 1024.7
20260508080508 57 261 0.0 2.0 0.00 0.01 0.01 74 1024.6
20260508080007 57 261 1.0 3.0 0.00 0.01 0.01 74 1024.6
20260508075507 57 263 0.0 6.0 0.00 0.01 0.01 74 1024.6
20260508075006 57 221 1.0 6.0 0.00 0.01 0.01 74 1024.4
20260508074506 58 217 1.0 6.0 0.00 0.01 0.01 74 1024.4
20260508074006 58 211 1.0 7.0 0.00 0.01 0.01 73 1024.3
20260508073504 58 223 2.0 7.0 0.00 0.01 0.01 73 1024.2
20260508073113 58 244 3.0 6.0 0.00 0.01 0.01 72 1024.1
20260508072503 58 186 1.0 7.0 0.00 0.01 0.01 72 1024.1
20260508072004 58 232 2.0 5.0 0.00 0.01 0.01 71 1024.0
20260508071504 58 206 1.0 7.0 0.00 0.01 0.01 71 1023.9
20260508071003 59 243 2.0 7.0 0.00 0.01 0.01 71 1023.8
20260508070505 59 201 2.0 10.0 0.00 0.01 0.01 70 1023.7
20260508070004 59 195 4.0 10.0 0.00 0.01 0.01 70 1023.7
20260508065503 59 209 3.0 9.0 0.00 0.01 0.01 70 1023.6
20260508065006 59 184 5.0 9.0 0.00 0.01 0.01 69 1023.6
20260508064536 60 193 1.0 4.0 0.00 0.01 0.01 69 1023.6
20260508064032 60 231 0.0 7.0 0.00 0.01 0.01 69 1023.6
20260508063532 60 254 1.0 9.0 0.00 0.01 0.01 69 1023.6
20260508063036 61 224 2.0 9.0 0.00 0.01 0.01 68 1023.6
20260508062532 61 211 4.0 12.0 0.00 0.01 0.01 68 1023.6
20260508062032 61 192 3.0 12.0 0.00 0.01 0.01 68 1023.5
20260508061539 61 205 3.0 8.0 0.00 0.01 0.01 67 1023.5
20260508061032 61 209 2.0 9.0 0.00 0.01 0.01 68 1023.4
20260508060536 61 280 4.0 9.0 0.00 0.01 0.01 68 1023.4
20260508060049 62 278 4.0 10.0 0.00 0.02 0.01 68 1023.4
20260508055531 62 272 2.0 10.0 0.00 0.02 0.01 67 1023.4
20260508055031 62 192 1.0 8.0 0.00 0.02 0.01 66 1023.5
20260508054501 62 209 3.0 8.0 0.00 0.02 0.01 66 1023.4
20260508054003 62 202 2.0 9.0 0.00 0.02 0.01 66 1023.3
20260508053506 63 200 2.0 8.0 0.00 0.02 0.01 66 1023.4
20260508053120 63 234 4.0 11.0 0.00 0.02 0.01 66 1023.4
20260508052506 63 246 4.0 13.0 0.00 0.02 0.01 66 1023.4
20260508052026 63 259 5.0 11.0 0.00 0.02 0.01 67 1023.4
20260508051626 62 248 4.0 11.0 0.00 0.02 0.01 68 1023.4
20260508051005 62 214 5.0 9.0 0.00 0.02 0.01 67 1023.3
20260508050554 62 257 3.0 13.0 0.00 0.02 0.01 67 1023.2
20260508050052 63 208 5.0 13.0 0.00 0.02 0.01 66 1023.1
20260508045551 63 277 6.0 14.0 0.00 0.02 0.01 66 1023.0
20260508045051 63 207 2.0 10.0 0.00 0.02 0.01 67 1023.1
20260508044552 63 198 5.0 14.0 0.00 0.02 0.01 66 1023.2
20260508044051 63 254 6.0 14.0 0.00 0.02 0.01 65 1023.1
20260508043551 63 215 3.0 11.0 0.00 0.02 0.01 65 1023.1
20260508043050 63 231 5.0 15.0 0.00 0.02 0.01 64 1023.0
20260508042549 64 207 6.0 15.0 0.00 0.02 0.01 65 1023.0
20260508042049 63 213 3.0 10.0 0.00 0.02 0.01 66 1023.1
20260508041548 63 210 4.0 12.0 0.00 0.02 0.01 66 1023.0
20260508041049 63 199 5.0 12.0 0.00 0.02 0.01 66 1023.1
20260508040545 63 217 3.0 11.0 0.00 0.02 0.01 67 1023.0
20260508040052 62 242 4.0 14.0 0.00 0.02 0.01 66 1023.0
20260508035543 62 219 4.0 15.0 0.00 0.02 0.01 67 1023.0
20260508035043 62 186 4.0 15.0 0.00 0.02 0.01 67 1023.1
20260508034549 61 257 4.0 14.0 0.00 0.02 0.01 67 1023.1
20260508034043 61 228 4.0 15.0 0.00 0.02 0.01 67 1023.1
20260508033543 62 252 6.0 15.0 0.00 0.02 0.01 68 1023.3
20260508033046 62 242 4.0 13.0 0.00 0.02 0.01 69 1023.3
20260508032541 61 213 6.0 10.0 0.01 0.02 0.01 69 1023.2
20260508032038 60 235 4.0 11.0 0.01 0.02 0.01 71 1023.1
20260508031541 60 248 4.0 15.0 0.01 0.02 0.01 73 1023.0
20260508031037 60 258 5.0 15.0 0.01 0.02 0.01 74 1023.2
20260508030537 60 217 5.0 13.0 0.01 0.02 0.01 75 1023.2
20260508030039 60 221 3.0 16.0 0.01 0.02 0.01 77 1023.1
20260508025536 59 239 6.0 16.0 0.01 0.02 0.01 77 1023.3
20260508025038 59 232 5.0 14.0 0.01 0.02 0.01 79 1023.3
20260508024559 59 263 3.0 14.0 0.01 0.02 0.01 79 1023.5
20260508024035 59 248 5.0 12.0 0.01 0.02 0.01 79 1023.7
20260508023536 59 258 3.0 10.0 0.01 0.02 0.01 78 1023.8
20260508023038 59 209 2.0 10.0 0.01 0.02 0.01 77 1024.0
20260508022534 59 228 2.0 10.0 0.00 0.01 0.00 76 1024.0
20260508022035 59 225 4.0 10.0 0.00 0.01 0.00 76 1023.9
20260508021537 59 236 5.0 12.0 0.00 0.01 0.00 77 1023.9
20260508021036 59 221 4.0 12.0 0.00 0.01 0.00 76 1023.9
20260508020534 60 244 3.0 12.0 0.00 0.01 0.00 75 1024.0
20260508020038 60 221 5.0 12.0 0.00 0.01 0.00 75 1024.0
20260508015534 60 218 6.0 12.0 0.00 0.01 0.00 74 1023.9
20260508015034 60 191 4.0 13.0 0.00 0.01 0.00 74 1023.9
20260508014536 60 219 5.0 13.0 0.00 0.01 0.00 74 1023.9
20260508014031 60 205 7.0 11.0 0.00 0.01 0.00 76 1024.0
20260508013532 60 218 4.0 15.0 0.00 0.01 0.00 76 1023.9
20260508013032 59 191 4.0 15.0 0.00 0.01 0.00 75 1024.0
20260508012527 59 261 5.0 10.0 0.00 0.01 0.00 74 1024.1
20260508012026 59 241 6.0 12.0 0.00 0.01 0.00 74 1024.0
20260508011531 59 222 5.0 14.0 0.00 0.01 0.00 74 1023.9
20260508011024 59 213 4.0 14.0 0.00 0.01 0.00 75 1023.9
20260508010524 59 189 6.0 13.0 0.00 0.01 0.00 75 1023.8
20260508010025 59 247 3.0 13.0 0.00 0.01 0.00 75 1023.9
20260508005523 59 231 4.0 11.0 0.00 0.01 0.00 76 1023.9
20260508005023 59 223 4.0 11.0 0.00 0.01 0.00 77 1023.9
20260508004537 59 205 4.0 11.0 0.00 0.01 0.00 78 1023.8
20260508004020 59 263 2.0 13.0 0.00 0.01 0.00 78 1023.7
20260508003519 58 317 5.0 13.0 0.00 0.01 0.00 78 1023.6
20260508003018 58 210 2.0 13.0 0.00 0.01 0.00 78 1023.5
20260508002516 58 232 5.0 15.0 0.00 0.01 0.00 78 1023.4
20260508002020 58 223 3.0 10.0 0.00 0.01 0.00 79 1023.3
20260508001529 58 280 3.0 8.0 0.00 0.01 0.00 80 1023.3
20260508001015 58 255 3.0 11.0 0.00 0.01 0.00 81 1023.3
20260508000514 58 248 3.0 12.0 0.00 0.01 0.00 81 1023.3
20260508000013 58 237 4.0 12.0 0.00 0.01 0.00 81 1023.3
20260507235514 57 227 2.0 12.0 0.00 0.01 0.00 82 1023.2
20260507235011 57 258 4.0 12.0 0.00 0.01 0.00 83 1023.1
20260507234511 57 260 3.0 14.0 0.00 0.01 0.00 83 1023.1
20260507234010 57 269 2.0 13.0 0.00 0.01 0.00 84 1023.0
20260507233515 56 303 4.0 9.0 0.00 0.01 0.00 84 1023.0
20260507233009 56 249 3.0 9.0 0.00 0.01 0.00 85 1023.1
20260507232508 56 214 3.0 6.0 0.00 0.01 0.00 85 1023.1
20260507232007 56 263 2.0 9.0 0.00 0.01 0.00 85 1023.1
20260507231507 56 200 3.0 11.0 0.00 0.01 0.00 85 1023.3
20260507231006 56 236 1.0 10.0 0.00 0.01 0.00 86 1023.3
20260507230506 56 158 3.0 10.0 0.00 0.01 0.00 87 1023.3
20260507230005 55 234 2.0 9.0 0.00 0.01 0.00 87 1023.3
20260507225505 55 191 3.0 9.0 0.00 0.01 0.00 88 1023.3
20260507225005 55 277 1.0 9.0 0.00 0.01 0.00 89 1023.2
20260507224504 55 273 2.0 8.0 0.00 0.01 0.00 88 1023.2
20260507224002 54 291 1.0 9.0 0.00 0.01 0.00 89 1023.2
20260507223502 54 240 2.0 9.0 0.00 0.01 0.00 89 1023.1
20260507223003 54 239 0.0 6.0 0.00 0.01 0.00 89 1023.1
20260507222501 54 234 1.0 5.0 0.00 0.01 0.00 89 1023.1
20260507222107 54 257 1.0 5.0 0.00 0.01 0.00 89 1023.1
20260507221600 54 246 0.0 3.0 0.00 0.01 0.00 89 1023.0
20260507221058 54 246 1.0 5.0 0.00 0.01 0.00 89 1022.9
20260507220559 54 235 1.0 5.0 0.00 0.01 0.00 89 1022.8
20260507220059 54 237 1.0 7.0 0.00 0.01 0.00 89 1022.7
20260507215558 54 282 2.0 7.0 0.00 0.01 0.00 89 1022.6
20260507215055 54 221 1.0 8.0 0.00 0.01 0.00 89 1022.5
20260507214654 54 227 2.0 8.0 0.00 0.01 0.00 89 1022.4
20260507214050 53 209 3.0 8.0 0.00 0.01 0.00 89 1022.4
20260507213550 53 279 2.0 10.0 0.00 0.01 0.00 89 1022.4
20260507213049 53 225 4.0 10.0 0.00 0.01 0.00 89 1022.2
20260507212547 53 227 3.0 14.0 0.00 0.01 0.00 90 1022.1
20260507212046 53 259 5.0 14.0 0.00 0.01 0.00 90 1022.0
20260507211546 53 237 3.0 10.0 0.00 0.01 0.00 90 1022.1
20260507211044 53 296 2.0 10.0 0.00 0.01 0.00 90 1021.9
20260507210543 53 234 3.0 12.0 0.00 0.01 0.00 90 1021.9
20260507210050 53 194 2.0 12.0 0.00 0.01 0.00 90 1021.9
20260507205540 53 254 3.0 11.0 0.00 0.01 0.00 90 1021.9
20260507205041 53 236 1.0 10.0 0.00 0.01 0.00 90 1021.9
20260507204640 53 266 4.0 10.0 0.00 0.01 0.00 90 1021.9
20260507204039 53 213 3.0 9.0 0.00 0.01 0.00 90 1021.9
20260507203539 53 288 5.0 11.0 0.00 0.01 0.00 90 1021.9
20260507203106 53 228 2.0 11.0 0.00 0.01 0.00 90 1021.8
20260507202538 53 267 3.0 10.0 0.00 0.01 0.00 90 1021.8
20260507202040 53 242 4.0 16.0 0.00 0.01 0.00 90 1021.8
20260507201536 53 261 4.0 16.0 0.00 0.01 0.00 90 1021.7
20260507201039 53 269 4.0 12.0 0.00 0.01 0.00 90 1021.6
20260507200538 53 230 1.0 11.0 0.00 0.01 0.00 90 1021.6
20260507200035 53 244 2.0 11.0 0.00 0.01 0.00 90 1021.5
20260507195541 53 225 2.0 11.0 0.00 0.01 0.00 90 1021.6
20260507195034 53 291 3.0 11.0 0.00 0.01 0.00 90 1021.5
20260507194635 53 178 4.0 11.0 0.00 0.01 0.00 90 1021.5
20260507194033 53 252 2.0 9.0 0.00 0.01 0.00 90 1021.4
20260507193534 53 267 3.0 8.0 0.00 0.01 0.00 90 1021.4
20260507193038 54 260 2.0 6.0 0.00 0.01 0.00 90 1021.5
20260507192533 54 244 1.0 7.0 0.00 0.01 0.00 90 1021.5
20260507192033 54 292 1.0 7.0 0.00 0.01 0.00 90 1021.5
20260507191537 54 270 2.0 5.0 0.00 0.01 0.00 90 1021.6
20260507191031 54 261 2.0 8.0 0.00 0.01 0.00 90 1021.5
20260507190531 54 258 2.0 8.0 0.00 0.01 0.00 89 1021.4
20260507190031 54 267 1.0 7.0 0.00 0.01 0.00 89 1021.3
20260507185530 54 253 2.0 9.0 0.00 0.01 0.00 89 1021.2
20260507185030 54 249 1.0 9.0 0.00 0.01 0.00 89 1021.1
20260507184631 54 273 1.0 5.0 0.00 0.01 0.00 89 1021.0
20260507184029 54 214 1.0 6.0 0.00 0.01 0.00 89 1020.9
20260507183529 54 275 1.0 8.0 0.00 0.01 0.00 89 1020.8
20260507183029 54 238 3.0 8.0 0.00 0.01 0.00 89 1020.8
20260507182528 54 231 1.0 7.0 0.00 0.01 0.00 89 1020.8
20260507182028 54 250 1.0 9.0 0.00 0.01 0.00 89 1020.7
20260507181528 54 246 3.0 9.0 0.00 0.01 0.00 89 1020.7
20260507181028 54 239 1.0 10.0 0.00 0.01 0.00 88 1020.7
20260507180528 54 267 2.0 11.0 0.00 0.01 0.00 88 1020.7
20260507180026 54 217 4.0 11.0 0.00 0.01 0.00 88 1020.7
20260507175533 54 252 3.0 8.0 0.00 0.01 0.00 88 1020.6
20260507175027 54 227 0.0 4.0 0.00 0.01 0.00 88 1020.6
20260507174627 54 248 1.0 7.0 0.00 0.01 0.00 88 1020.6
20260507174029 54 221 2.0 8.0 0.00 0.01 0.00 88 1020.6
20260507173529 54 242 3.0 10.0 0.00 0.01 0.00 88 1020.5
20260507173049 53 266 4.0 10.0 0.00 0.01 0.00 88 1020.4
20260507172526 53 265 2.0 10.0 0.00 0.01 0.00 88 1020.3
20260507172026 53 252 3.0 12.0 0.00 0.01 0.00 88 1020.3
20260507171527 53 279 5.0 12.0 0.00 0.01 0.00 87 1020.3
20260507171025 53 321 1.0 5.0 0.00 0.01 0.00 87 1020.3